Theta_e
320 322 320 321 321 320 317 314 315 317 316 317 317 319 320 320 320 318 318 321 316 315 320 318 317 319 319 319 315 312 316 314 310 308 305 304 303 302 301 300 299 299 298 297 297 297 297 297 297 297 298 300 301 301 302 303 303 304 306 308 309 311 313 314 314 315 316 316 317 317 318 318 318 318 319 319 320 320 320 321 321 321 322 323 323 324
319 321 321 323 321 318 316 314 313 313 313 314 315 317 319 318 319 318 318 319 315 315 322 318 316 321 321 317 313 313 317 313 308 307 305 304 303 301 301 300 299 299 298 297 296 296 296 296 296 296 297 298 298 299 301 302 302 303 304 304 305 307 309 310 311 313 314 314 315 315 315 315 315 315 315 315 315 315 316 317 317 317 318 319 319 320
317 319 319 319 317 315 315 314 314 315 315 315 317 317 320 320 320 321 319 319 315 315 323 322 317 320 319 314 310 310 311 308 306 306 304 303 302 301 300 299 299 298 297 296 295 295 295 295 295 296 296 296 296 297 299 301 302 303 303 303 304 305 306 307 308 309 310 310 312 312 312 313 313 311 310 311 310 310 311 310 310 311 312 313 314 315
319 321 318 314 313 314 316 316 315 316 317 319 320 318 321 320 319 322 321 321 319 315 320 320 317 321 319 313 310 307 306 305 304 303 303 302 301 301 300 299 298 297 297 296 295 294 294 294 294 294 295 295 295 295 297 298 300 301 301 302 302 303 304 305 306 306 307 308 308 308 308 309 309 308 307 308 307 307 307 306 305 305 306 307 308 310
321 322 317 314 314 316 317 318 317 316 320 325 324 320 322 321 320 323 322 321 323 320 319 317 321 330 325 317 312 307 305 305 303 303 302 302 301 300 299 298 298 297 296 296 295 294 293 293 293 293 294 294 294 294 295 295 296 297 299 300 301 301 302 303 304 305 306 306 306 306 306 306 306 305 305 304 304 304 304 304 304 303 303 303 303 305
320 318 316 317 318 317 318 321 322 320 321 327 327 322 321 322 322 322 322 322 325 325 319 315 324 335 332 323 315 308 307 306 304 303 302 301 301 300 299 298 297 297 296 295 294 294 293 293 293 293 293 293 293 293 294 294 295 296 296 298 299 300 300 301 302 303 304 304 304 304 304 303 302 301 300 300 301 302 303 303 303 303 303 303 302 302
320 317 317 320 322 321 321 323 325 323 321 324 325 324 323 323 323 324 322 322 326 325 319 317 323 328 329 328 317 309 309 307 304 303 302 301 300 299 299 298 297 297 296 295 294 293 292 293 292 292 293 293 293 293 293 294 294 295 296 297 297 298 299 299 300 301 302 302 302 301 300 300 299 298 298 299 300 300 301 302 302 302 302 303 302 302
321 318 318 318 321 322 321 323 323 322 324 326 324 325 328 325 323 325 320 320 323 321 321 322 319 318 323 325 315 310 310 307 305 304 302 301 300 299 299 298 298 297 296 296 295 293 292 292 292 292 292 292 292 292 292 293 293 294 295 295 296 297 297 298 298 299 299 299 299 299 299 298 298 297 298 298 299 300 300 301 300 300 301 301 301 301
319 318 321 320 320 321 323 326 324 320 323 326 322 322 325 321 321 325 320 320 320 316 323 327 317 316 324 323 311 309 312 309 306 304 302 301 300 299 299 298 298 297 296 295 294 293 292 292 292 291 291 292 291 292 292 292 292 292 293 294 295 296 295 296 297 297 297 297 297 297 297 296 296 296 297 297 298 298 298 299 298 299 299 299 299 299
316 315 321 324 322 324 328 325 321 321 320 320 318 321 325 323 323 323 320 321 319 316 322 326 319 317 326 325 313 309 314 313 306 303 302 301 300 299 299 298 298 297 296 295 293 292 292 292 291 291 291 291 291 291 291 292 292 292 292 293 293 293 293 294 295 296 296 295 296 296 295 295 295 295 296 296 296 296 296 296 296 296 296 297 297 298
317 312 316 321 320 325 327 317 315 319 317 315 319 324 328 328 325 324 324 322 319 321 324 324 320 317 323 328 319 311 312 311 306 303 302 301 300 299 299 298 298 297 297 296 293 292 292 292 291 291 291 290 290 291 291 291 291 291 291 291 291 291 291 292 292 293 293 293 293 293 292 292 292 292 293 293 292 292 293 293 292 293 293 294 294 295
318 314 315 319 317 319 321 315 315 319 317 317 323 325 325 328 327 325 326 322 320 326 329 323 318 316 321 326 318 310 308 306 306 304 301 300 300 299 299 298 298 297 297 297 295 293 292 292 291 291 290 290 290 290 290 290 290 290 290 290 290 290 290 290 290 291 291 290 290 290 290 290 289 289 289 289 288 288 289 289 289 289 290 290 291 292
321 321 319 317 315 316 321 320 317 319 321 320 323 324 324 325 322 321 324 322 322 325 322 319 318 317 321 319 311 307 305 305 306 303 300 299 299 299 299 299 298 298 297 297 296 293 291 291 291 290 290 290 289 289 289 289 289 289 289 289 289 288 288 288 288 289 289 288 288 288 288 287 287 287 287 286 286 286 286 286 286 286 286 287 287 288
323 325 319 314 315 317 320 320 318 321 321 316 319 324 325 323 319 321 322 318 319 322 318 316 317 319 322 315 306 304 302 302 303 301 300 299 298 299 299 299 298 297 297 296 295 293 290 290 290 289 289 289 289 289 288 289 289 289 289 288 288 288 287 287 287 287 287 287 286 286 286 286 286 286 285 285 285 285 285 285 285 285 285 285 285 285
324 327 323 318 318 318 316 317 325 329 320 315 320 321 322 325 324 323 322 319 321 325 319 315 316 324 325 313 303 301 300 299 301 300 299 299 298 299 298 298 298 297 296 295 294 291 290 290 290 289 289 289 288 288 288 288 288 288 288 288 288 288 287 287 287 287 287 286 286 286 286 286 286 285 285 285 285 285 285 285 285 285 285 285 285 285
321 326 326 318 314 315 315 316 324 328 320 315 317 318 318 324 324 320 322 323 322 324 321 319 321 320 315 306 301 301 300 299 299 298 298 299 298 298 298 298 298 297 296 295 294 292 290 290 290 289 289 289 289 288 288 288 288 288 288 287 288 288 288 288 287 287 287 287 287 286 286 286 286 286 286 286 286 285 286 286 286 286 286 286 286 286
319 325 323 314 313 314 314 317 319 322 322 316 314 321 322 319 320 322 323 320 318 320 321 322 321 314 309 307 303 301 301 300 299 298 298 299 299 299 299 298 297 296 296 295 294 292 290 291 291 290 290 289 289 289 288 288 288 287 287 287 287 287 287 287 287 287 287 287 287 287 286 286 286 286 286 286 286 286 286 286 286 286 286 286 286 286
321 325 323 315 316 314 309 314 317 316 319 318 319 324 320 315 320 324 324 322 320 321 321 321 320 315 315 314 305 301 303 301 299 299 299 299 299 299 298 298 298 297 295 295 293 291 290 291 291 291 290 290 290 290 289 288 287 287 287 287 287 287 287 287 287 287 287 286 286 286 286 286 286 286 286 286 286 286 286 286 286 286 286 286 286 286
320 323 323 316 316 316 311 315 319 313 312 317 321 319 316 318 322 322 321 322 321 319 321 324 321 318 319 316 309 306 305 302 300 300 299 299 299 298 298 298 298 297 296 295 294 292 290 291 291 291 291 291 291 290 290 289 288 288 287 287 286 286 286 286 286 286 286 286 286 286 286 286 286 286 286 286 287 287 287 287 287 287 286 286 286 286
320 321 322 315 313 315 315 317 321 317 311 313 316 314 316 319 321 321 318 321 322 319 320 322 319 321 324 319 316 314 305 301 301 300 299 299 298 298 298 298 297 297 296 296 296 293 290 291 291 291 292 292 291 291 291 290 290 289 288 287 286 286 286 286 286 286 286 286 286 286 286 286 286 286 286 286 286 286 286 286 286 286 286 286 286 286
318 317 321 319 314 315 318 318 322 322 315 315 317 316 316 316 317 320 317 319 323 321 321 319 316 323 324 315 314 313 305 301 301 300 299 298 298 298 298 297 297 297 296 297 296 292 290 291 291 291 292 292 292 292 291 291 291 290 289 288 287 286 286 286 286 286 286 286 286 286 286 286 286 286 286 286 286 285 285 285 285 285 285 285 285 285
316 317 323 324 318 319 322 318 317 322 322 323 324 320 319 318 319 319 317 318 320 319 321 319 317 322 319 309 310 309 304 301 300 300 299 299 299 298 297 297 297 297 297 298 296 291 290 291 291 292 292 292 292 292 292 291 290 290 289 288 287 287 286 286 286 286 286 286 286 285 285 285 285 285 285 286 285 285 285 285 284 284 284 284 284 284
316 320 325 324 320 319 318 313 312 317 320 322 321 318 320 321 320 319 318 318 318 317 318 318 318 319 313 308 308 306 303 302 300 300 301 300 299 298 297 297 297 296 297 297 294 291 291 292 292 292 292 292 292 292 291 291 290 289 289 288 288 287 287 286 286 286 286 286 286 286 286 286 285 286 286 286 286 285 285 284 284 284 283 283 283 283
317 320 320 321 322 319 314 312 314 315 315 317 317 316 318 319 319 318 317 318 320 318 317 316 318 317 312 309 307 304 303 302 300 301 301 301 300 298 298 298 296 296 297 296 293 291 291 292 291 292 292 291 292 292 291 290 289 289 289 288 288 287 287 287 287 287 286 286 286 286 286 286 286 286 286 285 285 285 284 284 283 283 283 282 282 282
318 319 319 320 321 319 315 314 316 316 316 318 318 316 315 317 316 314 312 314 316 316 316 315 316 316 313 309 306 304 305 304 302 301 301 302 302 300 299 298 297 296 297 297 295 292 290 290 291 291 291 291 291 290 289 289 289 288 288 288 288 288 287 287 287 287 287 287 287 287 286 286 286 286 285 285 284 284 283 283 282 282 282 281 281 281
317 318 319 318 319 319 317 316 316 317 316 315 314 313 312 313 314 312 312 313 314 315 315 314 315 314 310 308 307 305 306 307 305 302 301 303 302 300 299 298 297 297 297 297 296 293 290 288 289 290 290 290 289 289 289 289 288 288 288 288 288 288 288 287 287 287 287 287 287 287 287 286 286 286 285 284 284 283 283 282 281 281 281 280 281 281
317 317 317 318 318 316 317 316 313 314 315 314 312 312 311 311 311 311 312 313 313 312 312 311 313 312 309 309 309 308 308 309 308 306 305 303 302 301 299 297 296 296 296 296 295 293 290 288 288 289 290 289 289 289 289 288 288 288 288 288 288 288 288 288 288 287 287 287 287 287 286 286 286 285 285 284 284 283 282 281 280 280 279 280 280 280
316 315 314 315 316 314 313 314 312 311 314 314 313 313 312 309 308 309 310 311 311 311 310 309 309 309 309 308 308 310 310 310 309 309 308 306 304 301 298 296 295 295 294 294 293 292 292 290 288 288 290 290 289 289 289 288 288 288 288 288 288 288 288 288 288 288 287 287 287 286 286 285 285 285 284 284 283 282 281 280 279 279 279 279 279 278
316 315 312 312 313 312 310 310 309 308 310 312 311 312 312 309 307 308 308 308 310 309 309 308 307 308 308 306 305 308 310 310 309 308 306 304 303 300 297 295 294 293 292 292 292 293 294 291 288 288 290 290 290 289 289 288 288 288 288 288 288 288 287 287 287 287 287 286 286 285 285 284 284 283 282 282 281 280 279 278 278 278 278 277 277 277
313 313 311 309 312 311 307 307 307 305 307 308 308 308 308 306 305 305 305 305 306 307 307 306 306 305 304 303 304 305 306 306 305 304 302 302 303 301 298 295 293 292 292 292 292 293 293 289 287 288 289 289 289 289 288 288 288 288 288 288 287 287 287 287 287 286 286 285 285 284 284 283 283 281 280 279 279 278 277 277 276 276 276 276 276 276
309 310 308 307 310 309 305 305 306 305 304 305 304 303 302 301 302 302 302 302 303 304 303 303 303 302 301 302 303 303 304 302 302 302 304 304 302 299 295 293 293 293 294 294 294 294 292 287 285 288 288 288 288 288 288 288 287 287 287 286 286 286 286 286 286 285 285 284 284 283 282 281 280 279 279 278 277 276 276 275 275 275 275 275 274 274
308 308 305 305 310 307 302 302 303 302 302 302 301 300 298 299 300 300 300 301 301 301 301 301 302 301 300 301 302 302 303 302 301 302 304 302 299 296 295 295 295 296 296 295 294 296 294 288 285 287 288 287 287 287 287 287 286 286 286 286 286 285 285 285 284 284 283 282 281 281 280 279 278 277 277 276 276 275 275 275 274 274 274 273 273 273
306 307 306 306 309 305 299 300 302 302 302 301 300 299 298 298 298 298 298 299 299 299 300 300 300 300 300 301 301 301 301 300 300 301 300 299 297 295 295 297 297 297 297 296 295 294 292 288 286 288 288 287 287 286 286 286 286 285 285 285 285 284 284 284 283 282 281 279 279 278 277 277 276 276 275 275 274 274 274 273 273 273 272 272 271 271
304 307 307 305 307 304 299 299 302 301 301 300 299 301 300 299 298 298 298 298 298 299 300 300 300 300 301 301 301 302 301 298 297 296 295 296 296 294 294 295 296 296 295 294 292 290 286 286 287 288 287 286 286 286 285 285 285 285 284 284 284 283 283 281 280 279 278 277 277 276 276 275 275 274 274 273 273 273 272 272 272 271 270 270 269 269
304 305 305 303 304 302 298 299 302 300 299 299 300 300 299 299 299 298 298 298 299 299 299 300 300 301 301 302 301 300 297 294 292 292 292 293 294 293 293 293 294 294 294 292 291 287 284 285 286 286 286 285 285 284 284 284 284 283 283 282 282 281 280 279 278 277 277 276 275 275 275 274 273 273 273 272 272 272 271 271 270 269 268 267 267 267
304 304 304 303 301 300 299 300 301 298 297 298 299 297 296 296 297 297 298 298 298 298 298 299 299 299 300 301 298 294 292 291 291 292 293 293 293 292 292 293 294 293 291 290 288 286 285 286 287 286 285 284 284 284 283 283 282 282 281 281 280 279 278 277 277 276 275 274 274 273 273 272 272 271 271 271 271 271 270 269 268 267 266 266 265 265
302 303 304 303 301 300 300 300 299 298 297 298 297 296 296 296 297 298 299 298 297 296 296 298 298 298 297 297 293 291 292 291 291 292 294 293 293 292 290 289 291 290 287 287 288 288 288 288 287 286 285 283 283 283 283 282 282 281 281 280 279 278 277 276 275 274 273 272 272 272 271 270 270 270 270 269 269 269 268 267 266 265 265 264 264 264
300 301 303 302 300 299 298 298 298 298 298 297 296 296 296 296 299 300 298 298 300 298 296 298 299 299 297 293 291 292 293 292 292 294 294 293 293 292 289 286 286 287 287 287 288 288 287 287 286 285 284 283 282 282 282 281 281 280 280 279 277 276 275 274 273 272 271 271 271 270 270 269 269 269 269 268 268 267 266 265 264 264 264 263 263 263
299 299 300 300 300 299 298 299 299 297 298 299 299 297 295 294 298 299 296 297 301 298 295 297 299 300 299 294 291 292 292 292 294 294 294 293 292 291 290 287 284 285 288 288 288 287 286 285 284 283 283 282 282 281 281 280 279 278 278 277 276 275 274 273 272 271 270 270 270 270 270 269 268 268 268 267 266 265 264 264 264 263 263 263 263 263
298 299 300 300 299 299 298 298 298 297 298 299 298 296 293 292 296 298 295 297 299 296 295 296 298 300 300 294 291 292 293 293 294 293 293 292 289 287 288 288 285 285 287 287 287 287 286 284 283 282 281 281 281 280 279 278 277 276 275 275 274 273 272 271 271 270 270 270 270 270 269 268 268 267 267 266 265 264 264 263 263 263 263 262 262 262
296 297 298 298 299 298 298 298 297 297 298 296 294 294 293 293 295 296 296 298 298 295 295 297 298 300 297 292 290 292 292 292 292 292 292 291 289 287 286 286 286 287 287 286 286 285 284 283 282 282 281 280 280 278 277 276 275 274 274 274 273 272 271 270 270 269 270 270 270 270 269 268 267 267 266 265 265 264 263 263 263 262 262 262 262 262
295 296 296 298 298 297 297 298 296 297 298 297 294 292 292 292 295 296 298 299 297 295 295 295 296 297 294 291 290 291 291 291 290 291 292 292 291 288 285 284 285 285 285 285 284 284 283 281 281 280 280 279 278 276 275 274 274 274 274 273 272 271 270 269 269 269 269 270 270 269 268 267 266 266 266 265 264 264 263 263 263 262 262 262 262 261
295 295 295 296 297 296 296 296 295 296 296 294 293 292 292 293 298 300 299 297 295 296 296 294 294 293 291 290 290 289 290 291 289 289 290 290 289 287 284 283 284 284 283 283 283 283 282 281 280 279 278 277 276 275 274 274 273 273 273 272 271 270 269 269 269 269 269 269 269 268 267 266 266 266 265 265 264 263 263 263 262 262 262 262 261 261
296 296 295 295 295 296 296 295 295 296 295 293 294 295 294 294 298 299 298 295 294 295 296 295 293 291 289 289 290 289 289 289 289 289 289 289 288 286 283 282 283 283 283 283 283 282 281 280 279 278 276 275 275 274 273 273 272 273 273 272 270 269 269 268 268 268 269 269 268 267 266 266 266 265 265 264 264 263 263 263 262 262 262 262 261 261
295 296 296 297 296 294 295 297 297 296 295 292 293 296 295 294 295 295 295 296 295 295 294 294 294 291 288 288 289 289 289 288 288 288 289 289 288 286 284 283 283 283 283 282 282 281 280 279 279 277 275 274 273 273 272 271 272 272 272 271 270 269 268 268 267 268 268 268 267 266 265 265 265 265 264 264 263 263 262 262 262 262 262 261 261 261
295 293 292 295 296 293 292 295 295 293 293 292 292 294 295 295 294 293 293 294 295 295 293 292 294 292 289 288 288 288 289 288 287 287 288 288 288 286 283 282 283 282 282 281 280 279 279 278 277 275 274 273 272 271 271 271 271 271 270 270 269 268 267 267 267 267 268 267 266 265 264 264 264 264 264 263 263 262 262 262 261 261 262 261 261 261
294 291 290 292 294 293 292 293 293 292 293 293 292 292 293 293 292 291 292 292 293 293 292 292 292 292 290 289 288 288 289 288 288 288 287 287 288 286 282 281 281 281 281 280 280 279 277 276 275 274 273 272 271 271 271 271 271 270 270 269 268 267 267 266 266 266 267 266 265 264 264 264 264 263 263 263 263 262 262 262 261 261 261 261 261 261
293 292 292 292 292 292 293 293 292 292 292 292 291 291 292 292 291 291 290 291 291 291 291 290 290 290 291 289 288 288 289 288 288 288 287 287 287 285 281 280 280 280 280 280 279 278 276 275 274 273 272 271 271 270 270 271 270 269 269 268 267 266 266 266 265 266 266 265 264 264 264 263 263 263 262 262 262 262 262 262 261 261 261 261 261 262
292 292 293 293 291 291 292 292 291 291 291 291 291 290 290 290 291 291 290 290 289 290 290 288 287 287 289 289 289 288 288 288 288 288 287 287 287 284 281 280 281 280 279 278 278 277 276 275 274 273 272 271 271 270 270 270 270 269 268 267 266 265 265 265 265 264 265 264 264 264 263 263 262 262 262 262 261 262 262 262 262 261 262 263 263 263
292 292 292 292 292 292 291 291 291 291 291 291 291 290 290 290 289 289 290 290 289 289 289 289 288 286 286 286 287 288 289 289 287 287 287 287 285 283 281 280 279 278 277 277 277 276 275 274 273 272 272 271 270 269 269 270 269 268 267 266 265 265 265 264 263 263 264 264 264 263 263 262 262 262 261 261 261 261 262 264 265 264 263 263 264 265
292 291 291 291 291 292 291 291 291 291 291 291 291 291 291 290 289 289 289 289 289 289 289 289 289 288 287 286 284 285 288 288 286 285 287 286 283 282 282 281 279 277 276 276 275 274 273 272 272 271 271 270 269 268 268 269 269 267 266 265 265 264 264 263 262 262 263 263 264 263 262 261 261 261 261 261 261 260 261 263 266 267 266 264 264 265
Wind_Speed
3 3 2 5 7 9 10 11 10 7 3 3 2 2 4 5 6 5 6 7 1 1 6 5 4 5 7 9 8 7 5 7 7 7 7 6 6 6 6 6 7 7 7 10 16 20 22 25 26 28 29 30 31 31 31 32 32 31 30 28 27 24 20 18 17 17 17 17 16 16 16 16 16 15 14 14 14 12 10 9 8 6 4 5 9 12
4 4 7 10 11 11 8 7 6 4 2 2 3 3 5 5 6 6 5 7 1 2 5 3 2 7 9 7 7 6 6 7 5 7 7 6 6 5 6 6 6 5 6 10 15 19 23 25 27 29 31 31 31 31 32 33 32 31 31 30 28 26 23 22 20 18 18 18 17 17 17 16 16 16 16 17 16 15 14 13 12 11 9 7 6 6
2 3 12 13 9 5 2 4 6 4 4 3 2 2 4 4 4 6 5 5 1 3 4 3 2 8 8 3 6 6 6 5 5 7 6 6 7 6 6 6 5 6 6 8 11 17 22 25 27 29 30 30 29 30 33 32 32 31 31 31 29 27 25 23 21 19 20 19 17 17 17 16 16 17 16 15 15 15 14 15 14 12 11 9 8 8
4 6 13 12 5 2 5 3 6 3 2 3 3 3 4 4 1 4 5 4 2 1 3 3 3 7 5 3 7 6 6 7 7 9 8 6 7 6 6 5 5 6 7 8 9 13 19 23 26 28 28 29 29 31 33 32 32 31 30 29 28 27 26 23 21 20 20 19 19 19 18 17 17 17 15 14 15 15 15 16 15 15 14 12 10 8
7 8 5 3 5 6 6 6 3 4 2 4 6 6 5 4 5 5 4 4 4 4 2 3 5 5 5 2 4 4 5 7 7 8 8 6 6 6 6 6 6 6 6 7 8 10 16 20 23 26 27 28 29 31 31 31 31 31 30 29 28 27 27 25 23 20 18 18 18 18 18 18 18 19 19 19 19 17 17 17 16 16 15 14 13 11
9 6 2 4 4 6 6 6 4 6 2 4 5 9 9 7 7 4 1 4 4 4 3 3 3 5 5 2 4 4 3 6 5 6 7 6 6 5 6 6 6 5 5 6 7 9 13 17 20 25 27 28 29 28 28 30 31 31 31 30 29 28 27 26 24 22 20 20 21 21 22 22 23 23 24 23 22 20 18 16 14 14 14 14 14 14
6 5 3 5 5 6 6 6 5 7 4 3 5 7 7 4 4 4 3 3 1 3 3 3 1 5 5 4 4 6 4 5 4 5 5 5 5 5 5 5 4 5 5 5 8 10 13 16 19 23 25 26 25 25 27 29 31 32 32 32 31 30 29 27 25 23 22 23 24 25 26 25 24 24 23 21 20 19 17 14 13 13 12 12 12 12
5 4 3 5 5 5 5 5 6 8 6 3 4 4 7 6 5 5 5 2 3 2 4 2 2 3 5 4 5 8 7 5 4 4 4 4 5 4 4 4 4 4 4 5 6 8 13 16 18 20 22 23 23 24 27 29 31 32 32 32 32 31 30 28 26 24 24 24 24 24 25 25 24 23 21 19 17 16 15 14 15 14 13 13 12 11
2 3 4 6 5 4 6 5 7 9 5 6 5 6 6 6 5 4 5 2 1 1 5 4 1 2 5 4 2 5 5 4 5 4 4 4 4 4 4 4 5 4 4 5 5 7 12 15 17 18 20 22 23 25 27 28 29 31 31 32 32 32 31 29 27 26 26 26 26 25 25 25 24 22 20 18 17 17 16 15 16 15 14 14 13 13
0 3 5 7 5 6 5 3 4 7 4 4 5 5 5 5 5 4 5 3 2 1 5 6 3 2 5 4 2 4 4 4 5 4 4 4 4 3 3 3 4 4 4 5 6 9 12 14 16 18 20 22 23 24 25 27 29 30 31 31 32 32 31 29 28 27 28 28 28 28 28 28 27 24 23 22 22 22 21 21 21 19 18 16 15 15
2 2 3 4 4 5 5 2 1 2 3 4 5 5 6 5 4 4 2 4 2 3 6 8 8 6 4 4 3 3 3 4 8 6 5 5 4 4 3 3 4 3 3 4 6 9 12 13 15 18 20 22 22 23 25 28 29 30 30 30 31 30 29 28 28 28 28 28 29 30 29 29 29 28 27 27 28 27 26 27 26 25 23 22 20 18
5 2 2 2 2 4 6 4 3 3 3 5 5 4 3 4 4 4 4 4 1 5 6 5 6 6 4 4 2 3 5 2 9 10 10 9 7 5 4 3 3 2 3 3 4 7 10 11 13 16 19 20 22 24 26 28 28 29 29 29 29 29 28 27 27 27 28 28 29 28 28 29 29 29 30 30 29 28 28 28 27 27 27 26 25 24
3 4 3 3 1 4 6 4 3 5 5 5 4 5 3 2 3 2 3 0 3 6 4 2 5 2 5 3 2 5 7 6 4 10 12 11 9 7 5 4 3 3 3 4 4 4 6 8 11 14 17 20 23 24 25 26 27 27 27 27 28 28 27 26 27 27 28 28 28 27 28 28 28 28 29 29 29 28 28 28 27 28 28 28 27 27
3 5 2 1 3 2 7 5 2 1 1 4 5 4 4 2 0 3 4 2 4 6 3 2 4 2 5 1 3 4 6 6 1 8 9 9 9 8 6 5 4 3 3 3 4 3 5 8 10 14 17 20 22 22 24 25 25 25 25 26 26 25 25 25 26 26 27 27 27 27 27 27 27 27 27 27 27 26 26 27 27 27 27 27 27 27
2 5 2 4 2 3 7 6 5 5 3 4 4 5 5 4 4 4 4 3 4 5 3 2 2 2 3 1 3 3 4 5 4 7 7 6 6 5 5 4 4 3 3 3 3 4 6 9 12 15 17 19 20 21 23 23 23 23 23 23 23 23 22 23 23 24 25 25 24 25 25 25 25 25 25 25 25 24 24 25 25 25 26 26 26 25
3 5 5 2 1 5 6 3 5 6 2 1 3 4 2 4 4 2 3 5 3 3 3 2 2 3 3 1 3 3 4 5 5 5 6 6 5 5 4 4 4 3 3 3 3 4 7 10 12 14 16 17 19 20 21 21 21 21 21 20 20 20 19 19 20 21 21 22 22 23 23 24 24 24 23 23 23 24 24 24 25 25 26 26 25 25
3 4 5 2 2 3 4 2 3 3 2 2 2 3 4 4 5 2 3 1 3 2 4 2 2 2 0 1 2 3 4 4 3 4 6 5 5 5 5 4 4 4 4 4 4 4 7 9 11 13 14 15 17 18 19 19 19 18 18 17 17 17 17 17 18 18 19 19 20 21 21 22 23 24 24 24 24 25 24 25 26 27 27 27 28 28
4 3 5 1 2 2 1 2 3 3 3 5 3 5 3 1 4 4 1 3 2 3 4 2 4 3 1 2 1 1 2 3 3 4 5 5 5 6 5 5 4 4 4 4 4 5 7 9 10 11 12 13 14 15 15 16 15 15 15 14 14 15 15 16 16 16 17 17 18 19 19 21 23 23 24 24 24 25 26 26 27 28 28 29 29 29
4 1 6 1 3 2 3 3 2 4 2 4 3 3 3 2 1 1 2 2 2 4 4 4 5 4 4 4 3 6 9 8 7 6 6 7 7 6 5 5 5 5 4 4 4 4 6 8 8 9 10 10 11 11 11 11 11 11 11 11 12 13 13 13 13 14 15 15 16 16 16 18 20 21 22 23 24 25 27 27 28 29 29 29 30 30
3 2 4 2 1 1 3 2 3 2 2 3 1 1 1 3 3 2 2 3 2 3 4 5 5 4 5 5 8 11 12 11 10 8 8 9 8 7 6 6 6 5 5 4 4 4 6 7 6 7 8 8 8 8 7 7 6 6 7 8 9 10 11 12 12 12 13 13 13 14 14 15 18 20 21 23 24 24 26 26 27 28 30 31 31 31
2 3 3 3 2 1 2 3 6 6 3 2 1 1 1 1 1 1 1 3 3 3 3 4 5 5 4 2 6 9 9 12 13 11 9 8 7 7 7 7 6 5 5 5 4 5 7 7 7 8 8 8 7 7 6 6 5 5 5 5 6 8 9 10 11 11 11 11 10 12 12 12 15 19 20 22 23 23 24 25 25 26 27 29 30 30
1 3 3 1 1 3 4 4 5 7 6 5 4 4 4 3 2 2 3 1 3 3 3 4 6 6 3 1 3 5 7 10 11 10 8 7 8 9 8 7 6 5 6 6 5 7 9 9 9 10 9 7 7 7 8 7 7 6 5 4 4 5 6 7 8 9 9 9 9 10 11 11 13 17 21 24 25 25 25 26 25 25 26 28 29 29
2 3 1 1 3 5 4 3 1 4 4 4 2 2 3 4 4 4 6 3 2 1 1 1 4 4 2 2 2 2 6 8 8 8 8 8 9 9 7 6 6 6 6 6 6 8 10 10 10 9 8 8 8 8 9 9 7 6 5 3 3 3 4 4 5 6 7 8 9 10 11 13 15 19 23 26 27 28 27 27 27 26 27 28 29 29
2 3 1 2 2 2 3 4 4 2 3 2 2 1 3 3 3 4 4 2 2 2 1 1 4 3 1 3 2 3 5 6 6 7 8 8 7 7 7 7 7 7 6 6 7 9 10 10 9 9 9 9 10 10 10 8 7 5 4 3 2 1 2 2 3 4 6 8 10 11 13 16 18 20 23 25 27 28 28 27 27 27 27 28 29 30
2 2 2 1 2 4 4 3 4 4 0 2 2 1 2 3 5 3 1 3 1 4 5 4 6 4 1 3 4 4 5 5 6 6 6 6 6 7 7 7 7 7 6 6 6 7 8 9 10 11 12 13 12 10 9 7 6 5 3 3 2 1 1 1 2 4 6 9 11 13 15 16 18 20 22 24 27 28 29 28 28 28 28 28 29 31
3 3 3 4 6 7 5 3 2 3 2 1 1 2 2 4 6 4 2 2 2 3 5 5 6 3 3 3 2 1 3 5 5 5 5 5 6 6 6 6 6 7 7 7 6 5 7 9 12 14 15 14 12 10 9 8 7 6 4 4 3 3 3 3 4 5 7 10 12 13 14 16 18 20 23 26 29 30 31 31 30 30 30 30 31 32
2 2 3 6 8 8 5 5 4 3 4 2 2 3 4 4 5 5 3 3 3 2 3 6 5 1 4 4 4 4 5 6 6 5 6 6 6 7 7 6 6 6 6 6 6 5 7 9 12 15 15 14 13 11 11 9 8 7 6 5 5 6 5 5 6 6 8 9 11 12 14 16 19 22 25 28 31 32 32 32 32 32 33 32 33 33
4 2 4 5 6 4 4 4 3 3 4 4 3 5 7 5 6 6 4 5 4 3 7 9 6 5 9 9 6 7 7 6 6 7 7 8 7 6 5 6 7 7 6 6 6 7 7 8 10 14 15 14 13 12 10 9 8 8 7 7 7 7 7 7 7 7 7 9 10 12 15 18 21 23 26 29 32 33 33 33 33 33 33 33 33 34
4 3 3 3 4 3 4 3 3 3 2 4 5 8 10 6 7 7 7 8 7 6 9 9 6 7 10 8 5 8 8 7 7 8 6 5 5 5 6 7 8 8 7 7 8 8 8 8 10 14 15 15 13 12 11 10 10 10 10 9 8 8 7 6 6 6 7 8 11 14 17 20 23 25 27 29 31 32 32 32 32 33 33 34 34 35
3 2 1 3 3 3 2 3 3 4 3 5 7 11 10 6 6 8 9 9 8 8 11 10 9 10 10 7 7 7 7 7 6 5 3 4 5 7 8 8 8 8 8 8 9 8 7 8 10 12 14 14 13 11 11 10 9 9 8 7 6 5 4 4 5 6 8 11 14 17 20 23 25 27 28 29 30 30 30 30 31 33 34 35 36 36
1 1 1 3 1 4 2 2 3 3 3 5 9 11 6 2 5 9 9 6 5 8 11 9 9 12 11 7 6 5 3 4 4 5 5 6 6 7 8 8 8 8 8 8 8 7 6 8 10 11 11 11 10 8 7 6 4 3 2 1 1 2 2 4 7 9 11 14 17 20 22 25 26 27 28 29 29 29 30 31 33 34 35 37 37 37
1 1 1 4 2 4 3 2 3 2 4 5 13 13 8 5 8 9 6 6 8 9 8 5 6 10 10 7 4 4 4 5 6 7 6 5 6 8 9 8 8 8 8 7 7 6 5 6 9 10 10 8 7 6 5 4 4 4 2 1 1 3 6 8 10 12 14 16 18 20 22 24 25 26 27 27 28 30 31 33 35 36 37 37 37 36
3 4 1 3 3 4 4 2 1 5 5 8 11 10 9 10 11 10 7 8 9 7 6 6 8 9 8 5 5 6 6 7 7 7 6 6 7 7 8 8 8 8 8 7 6 6 6 8 11 11 10 10 10 9 8 7 5 3 2 2 4 7 9 11 13 14 15 16 18 19 20 22 23 24 25 26 28 30 32 33 35 35 35 36 35 34
4 5 3 3 3 3 5 1 3 2 6 8 3 4 8 10 11 11 11 11 9 7 6 7 7 6 6 6 8 10 9 6 6 6 6 5 6 6 6 7 8 7 6 7 7 8 10 12 13 13 13 13 12 11 9 7 5 4 4 5 7 8 10 12 13 13 14 15 17 18 19 21 22 24 25 27 28 30 32 32 33 33 32 33 34 34
5 5 3 2 3 2 2 3 2 7 10 5 2 2 5 6 8 8 8 9 9 9 8 8 8 7 7 8 8 7 6 2 2 4 5 5 7 7 7 7 7 6 6 7 8 9 13 15 16 16 16 15 13 12 10 7 5 5 5 5 7 9 10 12 13 13 14 15 16 17 19 20 22 24 26 27 29 30 31 31 31 32 32 32 33 33
6 4 3 2 2 1 2 4 5 7 6 6 5 2 1 1 2 2 4 9 10 9 9 9 10 9 8 8 5 2 2 1 2 2 5 6 6 6 6 7 7 7 8 10 12 14 17 18 19 19 18 16 14 12 9 7 5 5 5 6 8 10 11 12 12 12 13 14 15 16 18 20 22 24 25 27 28 29 30 31 30 30 31 32 32 32
6 5 2 2 2 2 3 5 4 4 8 11 8 3 3 3 5 5 4 9 8 6 8 8 9 9 7 5 3 3 3 3 2 4 6 7 7 7 8 9 9 10 13 16 18 19 20 20 19 19 18 16 13 11 8 7 5 5 6 7 9 10 10 11 11 11 11 13 14 16 18 19 21 23 25 26 27 28 29 29 30 30 30 31 32 32
5 5 5 4 3 2 3 4 4 2 7 11 6 1 2 4 6 7 4 6 7 5 8 8 8 7 4 2 3 3 4 2 2 5 6 7 7 6 7 10 12 14 17 19 18 17 18 19 19 18 17 15 13 10 8 7 7 7 7 8 9 10 10 10 10 10 12 13 15 17 18 19 21 22 24 25 26 27 28 28 30 30 29 29 31 32
2 2 4 4 3 3 4 5 6 6 7 8 6 5 4 3 5 6 2 5 7 5 7 7 6 6 6 5 6 5 4 2 6 6 5 7 7 7 7 9 11 15 18 19 19 19 20 20 19 17 16 14 12 10 9 8 7 7 7 8 8 9 9 9 9 11 13 15 16 17 18 19 20 21 23 24 25 26 28 29 29 30 29 28 30 32
2 1 3 5 6 7 7 5 4 5 6 5 5 5 3 3 6 8 1 8 6 5 6 7 6 7 7 6 6 6 5 6 7 6 7 8 8 9 9 10 11 15 17 18 19 20 21 21 19 18 17 15 13 11 9 8 7 6 6 6 7 8 8 9 10 12 14 15 16 18 18 19 20 21 22 23 25 26 27 28 29 29 29 30 30 31
1 1 3 5 8 9 9 6 4 4 5 5 5 5 5 3 6 3 6 7 4 6 7 7 8 8 7 7 6 6 7 9 7 5 5 7 7 8 11 12 13 16 18 19 20 20 21 21 19 18 16 14 12 10 9 7 6 6 6 6 7 7 8 9 11 12 14 15 17 18 19 19 19 20 21 23 25 27 28 28 28 29 30 30 30 31
2 1 2 4 6 6 5 5 3 5 5 6 5 3 4 4 2 5 7 4 6 8 8 7 8 8 7 9 9 8 8 10 7 4 5 7 8 8 10 10 10 12 14 16 19 21 21 20 18 17 16 14 12 9 8 7 6 6 7 7 7 8 9 10 11 13 14 16 17 18 19 19 19 20 22 23 24 27 29 29 28 28 30 30 30 30
6 4 2 4 4 2 2 4 4 6 5 10 9 1 2 5 6 5 3 3 5 7 7 7 8 7 8 9 9 10 10 9 7 6 6 7 7 9 10 12 14 15 17 18 20 22 22 21 19 18 16 13 11 9 8 7 7 7 8 8 8 8 10 11 11 13 14 16 18 19 19 20 20 21 22 23 24 26 29 30 29 29 30 30 30 30
4 5 4 4 3 4 4 6 6 4 4 9 10 5 6 8 7 4 4 5 5 5 5 6 7 8 9 9 10 10 10 9 8 7 7 7 7 8 10 13 16 18 19 21 23 24 23 21 19 17 15 13 11 9 8 7 7 8 8 8 8 9 10 11 11 13 15 17 18 19 19 20 21 21 21 22 24 26 28 30 29 29 30 29 28 28
6 6 5 4 3 5 6 6 5 3 3 7 9 7 8 11 9 6 6 5 5 5 5 5 6 8 9 10 10 9 9 9 9 8 8 8 8 9 11 15 19 20 21 22 23 24 23 21 19 17 15 12 11 9 8 7 8 8 8 8 9 9 10 11 12 14 15 17 18 19 20 21 21 21 22 22 24 25 28 29 29 29 30 29 27 27
5 4 3 1 1 2 3 4 4 2 3 7 9 8 8 9 7 6 6 6 6 6 5 5 7 9 9 10 9 8 9 10 10 9 9 8 8 10 12 15 17 19 21 21 22 24 22 19 17 16 14 12 11 10 8 8 8 8 8 8 9 9 10 11 12 14 16 17 18 19 20 21 22 22 23 23 24 25 27 27 27 28 30 29 28 27
3 3 3 2 3 2 2 3 5 5 5 7 9 9 9 8 6 5 7 7 7 7 7 7 9 9 8 9 9 10 11 11 10 10 9 8 8 9 11 13 16 19 22 24 25 25 22 19 18 16 14 13 11 10 9 8 8 9 9 8 8 9 10 11 12 14 16 18 19 20 20 21 23 23 24 25 25 26 27 27 25 26 28 29 28 27
2 2 3 4 6 4 4 6 6 5 4 5 7 8 8 9 8 6 6 7 7 8 8 8 8 8 7 8 10 11 11 11 10 10 9 8 8 9 11 14 18 21 22 23 24 24 22 20 18 16 14 12 11 10 9 8 8 8 8 8 8 8 10 11 12 14 16 17 19 20 20 21 22 24 24 26 26 26 28 28 26 25 27 29 29 28
1 1 3 4 4 2 4 7 5 2 5 8 9 9 8 8 9 8 8 8 8 8 9 8 8 9 9 9 10 10 10 12 11 11 11 9 8 9 13 17 20 22 23 23 24 24 22 20 18 15 13 11 10 9 9 8 7 8 8 7 7 8 10 11 12 14 16 17 19 20 20 21 22 23 24 26 26 27 28 28 26 24 27 30 29 28
2 4 3 4 3 4 6 8 6 3 5 10 11 11 10 9 8 9 9 8 9 10 10 10 10 10 10 12 11 9 9 12 12 11 10 9 9 13 17 18 19 20 22 23 23 22 20 17 15 14 12 10 9 9 9 7 7 7 7 7 7 8 9 11 12 14 16 17 19 20 21 22 23 23 23 24 25 26 29 30 27 23 23 27 28 27
7 10 7 5 6 9 9 9 8 7 8 10 10 10 9 7 8 9 10 10 11 11 11 10 11 10 9 12 14 13 11 12 13 12 10 10 13 18 19 20 20 21 22 23 22 20 18 16 14 12 10 9 9 9 9 8 7 6 6 6 6 8 9 10 12 14 16 17 19 20 21 21 22 22 22 23 23 24 26 30 32 30 25 23 24 25
Wind_Direction
92 102 176 208 212 211 212 205 207 222 202 205 230 226 237 249 270 268 267 279 314 325 274 263 262 271 273 281 304 325 15 64 85 90 79 74 68 61 63 57 51 51 40 32 34 37 40 43 46 48 50 53 54 53 55 56 55 54 56 59 60 62 66 68 67 67 67 66 64 62 63 60 56 52 49 46 43 40 38 37 37 30 358 287 259 248
78 138 220 223 216 217 219 201 202 235 233 224 235 260 273 249 256 257 249 280 299 159 257 274 322 289 275 289 332 356 45 59 73 93 89 82 77 65 60 56 51 50 37 36 36 36 39 43 46 48 49 51 51 51 55 57 55 55 56 54 54 58 63 66 69 73 74 74 75 74 73 69 62 55 50 48 44 39 36 35 33 33 30 15 346 315
106 208 237 233 221 233 263 158 162 203 194 185 191 200 261 249 267 277 264 289 339 157 254 308 340 283 279 341 23 26 62 59 52 78 81 80 79 63 53 50 45 47 38 36 34 33 36 39 44 47 47 46 46 50 56 59 60 59 57 54 53 54 58 63 68 73 76 80 83 83 80 78 74 65 59 57 52 45 41 37 34 30 25 19 10 358
180 236 244 235 209 222 265 209 149 156 178 196 188 178 238 235 205 272 279 301 322 254 272 321 318 281 273 73 59 39 68 76 64 72 69 68 77 66 57 49 40 46 39 38 36 33 37 39 40 43 46 46 45 47 51 55 58 59 59 58 57 55 55 59 66 73 81 86 87 87 85 85 83 76 72 67 57 47 41 37 34 30 25 20 12 3
215 238 239 193 161 183 240 268 180 159 241 247 213 203 227 223 205 229 280 315 332 343 3 19 335 296 261 213 98 72 73 76 67 74 69 58 67 69 66 55 43 44 39 42 42 34 40 43 41 43 46 48 48 48 49 52 56 59 61 62 62 60 56 56 60 67 80 87 87 88 86 83 79 69 62 57 50 45 41 37 34 30 27 24 20 14
241 241 110 118 152 162 199 258 229 170 217 284 233 212 214 219 222 225 341 14 17 340 330 38 350 295 294 283 154 140 84 69 58 61 68 55 51 56 60 56 44 41 40 43 46 41 43 45 46 47 47 47 48 49 53 57 60 62 62 63 64 64 61 57 57 61 68 73 73 74 71 67 63 57 51 48 46 45 43 38 35 32 29 27 26 24
247 238 160 171 169 147 178 245 237 168 152 279 250 206 193 182 190 179 132 88 121 247 289 56 141 267 313 320 192 165 111 88 73 59 67 60 52 54 57 55 45 39 38 42 47 45 45 45 46 49 49 49 49 52 58 61 63 65 64 64 64 64 63 60 58 59 64 67 67 68 67 63 60 56 51 50 50 49 46 42 36 32 29 23 22 22
217 219 210 199 176 161 196 248 228 161 132 244 247 139 132 136 156 163 131 131 211 249 318 360 154 253 292 280 208 153 122 109 100 80 77 71 64 61 55 53 48 40 35 44 50 44 45 47 46 48 51 54 55 58 62 63 63 65 66 66 66 65 65 63 61 60 61 64 66 67 67 64 60 57 53 51 50 49 46 45 40 35 32 27 21 13
191 204 215 181 164 188 212 231 198 154 144 240 215 125 120 135 143 127 104 105 290 5 307 285 158 249 265 272 217 153 153 167 159 141 119 101 87 74 64 57 47 38 37 45 55 52 51 54 54 55 57 59 61 63 65 66 67 67 67 67 67 65 64 64 64 64 63 64 65 66 66 65 62 59 57 53 49 46 42 41 38 33 31 28 25 19
48 227 204 149 151 205 210 233 188 160 180 214 153 100 61 71 83 77 103 112 31 349 252 235 180 207 266 280 209 186 223 206 169 154 144 129 117 106 91 77 60 46 40 46 60 63 61 63 63 65 66 63 63 65 67 69 70 70 68 68 67 64 63 63 64 64 63 62 62 62 63 63 61 60 58 56 51 47 44 42 39 34 31 26 22 18
323 286 194 142 175 194 156 106 115 151 161 127 94 56 28 28 43 45 72 89 56 278 250 223 192 183 266 286 197 192 261 198 157 151 161 149 135 137 127 101 86 65 54 54 61 65 66 69 70 70 68 65 65 67 69 70 70 70 69 68 67 65 64 64 63 64 63 62 61 60 60 59 58 56 55 54 50 47 46 45 42 40 38 35 30 23
329 323 255 251 189 134 103 82 31 17 57 93 79 63 41 345 9 23 358 45 123 254 267 235 185 167 226 266 269 289 311 239 169 165 167 159 150 152 142 126 115 95 83 67 59 61 62 64 65 66 66 64 65 66 67 69 70 71 71 71 70 66 65 65 65 65 65 63 62 61 60 59 57 55 54 52 49 46 45 43 41 40 39 37 35 30
309 246 266 307 241 138 108 86 16 4 32 79 90 82 75 331 351 354 305 349 216 252 270 177 132 165 236 239 309 307 321 309 194 160 158 155 151 155 156 153 150 132 105 84 71 62 62 62 61 64 64 64 65 66 68 69 71 72 72 72 72 68 67 67 66 66 65 64 63 62 61 60 59 57 55 53 50 46 44 41 39 37 36 34 33 31
295 290 308 339 280 175 140 148 182 254 127 137 144 125 121 142 205 264 264 267 263 269 274 164 135 271 268 296 338 311 319 319 106 128 140 145 146 155 159 157 150 129 103 87 88 80 74 71 68 68 69 69 70 71 72 72 73 74 74 74 75 73 71 70 69 68 67 65 64 63 62 61 59 57 55 53 50 47 44 41 38 36 33 31 29 27
197 294 238 179 233 186 170 181 163 143 152 176 157 136 146 160 173 222 227 214 254 280 288 247 185 210 225 293 325 325 345 358 67 104 117 122 132 141 135 139 138 119 101 95 94 86 79 77 76 76 76 76 76 75 74 74 74 74 74 74 75 73 71 71 70 68 67 65 63 62 60 58 56 54 52 50 46 43 41 37 35 32 29 27 25 23
165 256 251 237 243 166 174 196 134 114 104 220 130 114 171 189 168 208 221 183 193 292 285 230 214 204 184 264 335 20 37 40 59 89 109 118 130 134 139 155 153 136 124 111 99 86 83 83 83 83 81 80 78 76 74 72 71 71 71 71 71 70 70 69 68 67 64 62 59 57 54 51 49 46 43 41 37 34 31 29 27 24 21 19 16 15
146 265 279 352 16 160 169 189 133 124 182 168 128 179 216 181 133 124 271 233 98 271 266 210 230 285 335 275 333 46 61 72 79 107 130 148 159 159 172 178 169 160 142 122 116 108 99 95 91 88 85 82 79 75 72 68 67 69 69 69 70 69 68 66 64 63 60 58 55 51 48 44 41 38 34 31 28 24 23 21 19 17 14 12 9 7
150 263 284 128 144 240 188 120 63 45 138 132 165 214 201 109 87 97 237 322 18 251 274 273 238 251 240 247 285 86 159 178 183 174 168 184 187 183 189 191 192 178 152 138 134 123 113 105 97 93 88 83 80 75 72 71 69 70 71 71 71 69 66 63 61 59 55 52 49 44 42 38 34 32 28 25 21 18 16 15 13 10 9 6 4 1
129 218 286 243 158 274 9 83 50 351 70 129 187 204 122 129 254 83 165 227 243 246 279 292 268 242 208 208 194 200 203 193 191 192 193 202 198 193 197 201 203 185 165 159 153 139 123 113 105 101 98 93 90 84 80 79 76 76 76 75 76 75 71 68 65 61 56 52 48 43 40 38 33 30 25 20 16 12 10 7 5 3 2 1 359 356
110 151 274 308 176 280 35 86 194 243 18 65 76 353 71 167 180 170 175 173 189 228 259 286 291 267 237 201 183 201 198 181 183 192 198 204 199 196 197 196 195 187 184 177 167 164 143 129 124 122 121 116 111 106 104 103 99 97 90 84 86 84 80 77 71 67 62 57 52 45 41 37 30 25 20 14 10 7 4 2 359 357 355 354 354 351
98 151 232 300 333 127 166 212 195 183 166 118 134 206 237 194 154 226 215 136 148 191 225 269 274 262 260 194 185 206 194 176 182 186 193 202 200 204 205 197 194 189 187 184 177 178 166 153 149 145 142 141 139 142 146 150 155 146 126 102 92 86 81 78 75 71 67 63 57 49 44 35 24 18 13 7 4 360 358 356 354 352 349 347 347 346
140 157 186 252 302 188 223 243 192 177 167 154 172 192 186 164 138 236 255 188 148 180 190 232 265 268 269 263 227 222 186 177 184 180 183 197 201 208 211 200 194 190 188 191 186 184 177 166 160 159 159 164 169 173 170 166 165 159 150 130 106 91 83 78 75 73 68 64 58 46 39 29 14 9 5 0 357 354 351 349 348 346 342 340 340 339
113 111 149 222 210 210 242 295 222 193 152 131 175 185 156 150 138 181 234 220 159 213 156 183 260 268 265 292 297 212 169 170 177 174 180 196 204 206 206 201 198 197 195 190 181 182 182 176 176 182 190 194 190 180 172 167 164 161 157 145 122 98 85 73 66 60 51 43 33 23 16 8 360 356 354 351 349 347 345 342 340 339 337 334 333 332
81 98 183 263 301 313 318 336 348 6 86 111 264 163 138 164 151 175 216 166 140 243 211 220 252 243 277 331 18 91 131 150 176 189 189 194 201 201 200 200 197 193 193 187 180 182 185 190 199 209 209 197 184 177 174 172 169 167 166 163 148 112 83 59 38 29 20 13 6 359 353 350 347 345 343 342 342 341 339 336 333 332 331 329 327 327
187 157 156 210 295 324 334 341 343 337 337 178 242 212 146 132 112 105 120 105 137 225 191 217 250 242 296 4 49 95 130 159 195 207 197 192 199 205 205 202 196 190 186 187 188 187 189 197 204 202 194 183 178 180 179 179 181 179 182 200 213 218 256 326 342 352 354 349 346 343 341 339 337 335 334 335 336 336 334 332 330 329 328 327 325 324
184 179 156 177 224 241 240 221 223 252 237 204 241 217 175 138 131 129 123 140 212 206 170 209 246 263 343 2 19 194 183 196 221 224 218 221 218 214 210 203 196 191 188 190 191 188 186 189 190 185 181 180 182 186 188 189 194 198 204 223 242 254 271 295 307 321 331 332 332 331 330 329 327 327 329 330 332 332 331 329 328 328 328 327 325 323
128 187 201 198 224 235 218 209 205 166 162 195 241 221 206 179 144 127 119 165 205 196 209 229 217 224 288 255 219 237 233 225 235 230 226 233 228 221 216 206 199 194 192 189 184 183 183 187 191 187 184 188 193 195 198 201 204 212 224 244 264 270 275 283 292 306 317 318 319 319 319 321 322 323 324 325 326 326 325 324 324 324 324 324 322 321
116 226 232 204 235 240 156 176 203 146 166 200 220 242 235 202 138 135 177 202 176 180 243 242 194 186 249 242 202 212 230 232 236 232 229 232 228 217 202 194 197 196 190 181 180 186 189 193 199 197 196 199 203 205 210 217 223 232 243 257 267 270 271 273 280 292 300 301 306 312 315 317 319 319 320 321 321 320 320 320 321 321 320 320 319 317
128 229 223 164 238 245 128 150 184 149 189 217 219 241 248 225 160 163 211 213 180 198 248 252 212 207 241 246 203 203 215 219 232 235 225 220 215 197 184 188 193 190 183 184 191 196 197 202 206 207 208 210 211 216 223 231 241 249 257 267 275 278 277 275 274 280 290 299 309 315 316 317 318 319 320 320 319 319 319 319 319 318 317 316 315 314
131 217 180 140 235 258 159 183 190 170 207 236 236 239 243 235 190 193 224 222 199 220 248 256 257 255 254 241 222 224 216 207 228 246 224 196 195 189 189 189 186 183 185 192 200 204 206 211 213 214 216 218 220 228 239 249 260 267 273 281 287 286 283 282 283 293 306 314 316 317 316 316 316 317 318 319 319 319 319 318 317 316 315 314 313 313
100 183 134 107 212 289 298 198 184 164 187 238 258 252 233 204 218 226 234 227 211 235 246 252 264 269 265 240 220 233 213 172 195 224 223 215 197 182 184 184 180 187 197 204 211 216 219 222 225 229 231 232 234 239 245 251 255 253 256 282 279 288 303 301 302 309 315 316 315 314 314 313 313 314 315 317 318 318 318 316 316 315 314 314 313 313
108 173 56 78 130 280 309 196 205 31 27 287 272 260 231 206 234 240 228 207 212 228 238 240 246 255 260 254 235 231 210 193 205 211 211 215 195 176 177 181 186 197 206 211 215 217 220 213 211 216 219 216 210 199 187 175 157 152 149 144 290 302 306 305 307 311 314 314 312 311 311 311 312 313 315 317 317 316 316 315 315 315 315 314 313 313
130 146 131 109 154 270 297 236 198 36 9 283 265 245 222 224 237 246 247 234 220 203 200 218 229 238 245 251 255 247 231 224 222 209 197 201 199 190 185 184 194 207 208 201 195 190 188 181 177 178 178 173 173 170 164 163 164 166 190 269 289 294 297 302 307 310 311 312 310 309 311 312 314 315 315 316 315 315 315 315 314 315 314 313 312 311
131 136 157 153 146 252 266 253 62 22 261 259 251 167 191 212 223 230 241 243 222 196 202 225 236 237 226 221 231 237 236 231 215 202 198 194 189 193 200 199 202 211 201 185 180 179 178 172 164 162 164 165 167 168 167 172 183 201 233 262 278 288 296 303 307 311 312 312 311 312 313 314 314 315 314 315 315 315 315 315 314 314 313 311 311 311
146 137 149 143 121 190 207 99 110 241 245 265 355 121 182 201 209 219 243 251 232 214 217 232 241 233 220 222 228 234 241 239 167 190 203 198 185 180 193 210 211 204 193 184 183 183 178 171 164 163 165 167 169 170 176 185 196 215 240 266 285 295 303 307 309 313 312 311 311 312 314 315 314 314 315 316 317 317 316 316 314 313 313 312 311 310
154 149 149 146 139 153 142 153 207 247 285 304 290 244 150 176 173 180 276 265 243 217 204 221 239 234 228 237 239 204 174 117 68 236 227 221 205 181 186 208 206 193 192 190 186 185 183 179 177 176 173 172 174 178 186 199 212 231 258 284 297 302 306 307 310 312 310 308 311 312 314 314 314 315 317 318 318 318 317 316 314 313 313 312 310 309
152 149 144 173 200 174 171 213 243 322 314 285 265 201 176 200 163 156 235 259 250 212 182 199 230 234 234 246 223 149 125 97 19 286 251 237 224 204 206 214 206 200 201 197 192 191 191 189 186 182 177 174 179 187 197 212 231 252 272 289 297 302 307 310 311 310 306 307 312 314 315 316 316 317 319 320 319 317 316 314 312 312 312 310 309 308
163 170 168 190 217 140 142 237 268 288 265 260 256 229 228 202 165 159 199 263 272 229 186 185 207 213 199 175 176 145 99 89 266 262 246 234 224 212 219 225 217 210 203 197 193 192 189 186 182 180 179 179 184 195 208 224 242 260 278 291 299 304 308 311 308 304 305 311 315 316 317 318 318 319 320 319 317 315 313 312 310 310 310 308 307 307
153 168 153 170 207 159 164 220 230 229 249 254 250 255 246 180 140 109 80 276 262 221 185 172 179 195 190 178 171 147 125 196 249 257 238 223 213 198 202 214 215 210 202 196 195 191 184 180 177 177 181 185 191 203 217 231 247 266 281 290 296 302 304 302 300 303 308 314 317 317 319 320 320 320 320 318 316 313 311 310 309 309 309 307 306 306
146 144 158 187 215 213 211 228 232 238 257 251 235 238 223 139 96 84 357 268 247 195 178 168 178 206 202 179 165 161 174 207 236 242 217 205 206 201 196 196 198 200 199 195 195 191 184 181 180 180 184 192 200 211 224 236 252 270 282 289 294 297 296 294 298 306 312 316 318 319 320 321 321 321 319 317 315 314 311 310 309 309 309 308 307 307
150 201 198 209 224 224 220 229 251 262 247 218 206 204 181 106 74 118 228 241 198 184 192 181 191 207 190 169 175 190 208 220 229 223 190 187 203 213 210 205 199 199 200 196 192 188 183 182 186 188 192 199 207 217 230 246 265 279 287 293 293 290 290 294 301 309 314 317 320 320 321 322 322 322 320 319 317 314 312 311 310 309 310 310 309 309
153 176 230 219 223 227 225 227 262 277 236 178 166 200 172 135 158 218 225 206 171 189 199 194 205 208 183 181 195 206 221 229 224 201 177 185 201 211 210 201 189 189 193 190 186 185 182 182 187 192 196 203 211 222 238 257 275 285 290 294 293 290 293 298 305 312 316 318 320 320 321 324 324 324 322 322 319 315 313 313 313 311 311 312 310 309
164 158 215 225 196 166 205 217 230 259 223 152 133 132 214 192 209 216 219 223 198 189 189 198 212 207 189 197 211 216 227 234 225 213 206 202 205 208 203 193 186 185 184 182 185 189 188 187 190 195 201 206 214 229 246 261 275 284 290 293 292 292 296 302 308 313 317 319 319 321 323 325 326 326 324 323 321 316 313 314 313 313 314 313 311 308
179 165 194 225 186 146 184 213 214 232 200 153 151 177 208 212 214 183 176 221 224 197 187 201 218 212 196 202 216 220 227 236 231 224 222 217 215 211 202 195 193 190 188 189 193 193 192 193 194 197 203 211 220 235 250 263 276 284 289 291 290 291 297 304 309 313 317 318 319 321 324 326 327 326 325 323 322 317 313 313 314 315 316 314 310 305
220 192 174 194 198 172 187 215 222 214 173 177 189 196 204 219 224 185 173 206 223 208 192 195 222 223 205 205 216 219 223 230 227 221 219 218 217 211 204 201 198 196 195 195 195 193 194 197 198 198 204 215 226 239 251 265 278 284 287 288 289 292 298 305 310 314 317 318 320 323 325 326 327 326 325 324 322 316 312 312 314 315 315 313 308 304
238 188 143 149 230 222 217 217 213 201 181 199 213 215 211 222 221 185 187 219 228 215 200 195 216 223 209 205 213 220 226 229 226 223 221 219 219 213 206 203 200 197 196 193 191 192 193 195 198 200 205 217 228 239 252 269 281 284 284 284 287 293 299 305 310 314 317 319 322 324 326 326 326 326 325 323 320 315 312 312 312 314 313 309 305 302
268 163 146 202 220 218 240 219 198 198 194 192 210 226 234 240 233 192 193 221 230 222 217 214 220 225 213 200 204 218 229 228 225 227 225 219 220 216 205 200 198 196 196 195 193 193 191 192 197 202 207 217 228 238 252 270 280 281 280 283 287 293 298 304 310 314 316 320 323 325 327 327 325 324 323 321 319 317 314 313 313 312 309 306 303 300
257 143 153 215 219 208 237 238 220 220 234 216 212 223 232 241 244 228 213 223 233 236 234 225 219 222 219 208 206 217 231 231 224 225 227 220 218 216 207 202 199 197 198 198 195 192 193 197 201 206 212 220 229 240 256 272 277 273 275 281 285 289 296 303 310 313 316 320 323 326 328 327 324 322 321 319 319 317 315 314 314 311 307 304 301 297
131 169 179 197 206 220 265 252 236 273 292 267 243 234 231 232 240 244 240 236 238 244 247 240 227 220 221 222 216 213 227 236 229 222 224 223 217 214 211 207 202 198 197 195 194 196 199 203 206 211 219 227 234 247 262 272 270 268 272 277 280 287 296 304 310 314 317 321 324 326 328 325 322 321 319 317 317 318 317 316 313 307 304 304 302 294
150 230 203 141 172 227 237 228 210 202 250 252 245 240 235 227 227 239 247 248 243 241 243 244 241 234 229 233 231 218 223 237 235 223 223 225 218 214 211 205 199 196 195 194 194 198 203 208 212 218 226 234 241 253 266 268 263 264 268 270 277 287 297 306 311 313 317 322 325 327 326 323 320 319 318 317 317 318 320 322 320 309 300 299 300 298
211 226 209 173 208 234 232 219 206 203 229 246 250 247 239 220 209 221 233 238 239 239 236 235 241 246 243 240 235 224 221 235 236 226 223 227 223 218 210 202 196 194 194 193 193 196 203 210 217 224 231 240 250 261 270 271 263 259 260 265 276 289 299 307 310 311 316 323 326 326 324 319 317 318 317 317 318 317 319 322 326 325 318 305 300 302